TimeEST,TemperatureF,Dew PointF,Humidity,Sea Level PressureIn,VisibilityMPH,Wind Direction,Wind SpeedMPH,Gust SpeedMPH,PrecipitationIn,Events,Conditions,WindDirDegrees,DateUTC
12:15 AM,44.6,44.6,100,29.86,3.0,Calm,Calm,-,N/A,,Overcast,0,2013-02-24 05:15:00
12:35 AM,44.6,44.6,100,29.87,4.0,Calm,Calm,-,N/A,,Overcast,0,2013-02-24 05:35:00
12:55 AM,44.6,44.6,100,29.88,3.0,NNW,5.8,-,N/A,,Overcast,330,2013-02-24 05:55:00
1:15 AM,44.6,44.6,100,29.88,2.5,NW,4.6,-,N/A,,Overcast,320,2013-02-24 06:15:00
1:35 AM,44.6,44.6,100,29.89,2.5,WNW,5.8,-,N/A,,Overcast,290,2013-02-24 06:35:00
1:55 AM,44.6,44.6,100,29.88,1.8,WNW,3.5,-,N/A,Rain,Light Rain,290,2013-02-24 06:55:00
2:15 AM,46.4,46.4,100,29.88,2.0,WNW,5.8,-,N/A,Rain,Light Rain,290,2013-02-24 07:15:00
2:35 AM,46.4,46.4,100,29.88,7.0,WNW,6.9,-,0.01,,Overcast,300,2013-02-24 07:35:00
3:15 AM,46.4,46.4,100,29.88,10.0,NW,6.9,-,N/A,,Overcast,320,2013-02-24 08:15:00
3:35 AM,46.4,46.4,100,29.88,10.0,West,4.6,-,N/A,,Overcast,280,2013-02-24 08:35:00
3:55 AM,46.4,46.4,100,29.88,10.0,NW,6.9,-,N/A,,Overcast,310,2013-02-24 08:55:00
4:15 AM,44.6,44.6,100,29.87,9.0,NW,8.1,-,N/A,,Overcast,310,2013-02-24 09:15:00
4:35 AM,44.6,44.6,100,29.88,8.0,West,4.6,-,N/A,,Overcast,280,2013-02-24 09:35:00
4:55 AM,44.6,44.6,100,29.88,10.0,WNW,6.9,-,N/A,,Overcast,290,2013-02-24 09:55:00
5:15 AM,44.6,44.6,100,29.89,8.0,WNW,5.8,-,N/A,,Overcast,300,2013-02-24 10:15:00
5:35 AM,44.6,44.6,100,29.90,7.0,WNW,5.8,-,N/A,,Overcast,300,2013-02-24 10:35:00
5:55 AM,44.6,44.6,100,29.91,5.0,WNW,8.1,-,N/A,,Overcast,300,2013-02-24 10:55:00
6:15 AM,44.6,44.6,100,29.92,4.0,NW,6.9,-,N/A,,Overcast,310,2013-02-24 11:15:00
6:35 AM,44.6,44.6,100,29.93,2.0,WNW,6.9,-,N/A,,Overcast,300,2013-02-24 11:35:00
6:55 AM,44.6,44.6,100,29.94,1.8,WNW,8.1,-,N/A,,Overcast,290,2013-02-24 11:55:00
7:15 AM,44.6,44.6,100,29.94,4.0,NW,6.9,-,N/A,,Overcast,310,2013-02-24 12:15:00
7:35 AM,44.6,44.6,100,29.96,5.0,WNW,8.1,-,N/A,,Overcast,300,2013-02-24 12:35:00
7:55 AM,44.6,44.6,100,29.96,7.0,NW,10.4,-,N/A,,Overcast,320,2013-02-24 12:55:00
8:15 AM,44.6,44.6,100,29.97,7.0,NW,10.4,-,N/A,,Overcast,310,2013-02-24 13:15:00
8:35 AM,44.6,44.6,100,29.98,7.0,WNW,6.9,-,N/A,,Overcast,300,2013-02-24 13:35:00
8:55 AM,46.4,46.4,100,29.99,7.0,WNW,5.8,-,N/A,,Overcast,300,2013-02-24 13:55:00
9:15 AM,46.4,46.4,100,30.00,7.0,WNW,6.9,-,N/A,,Overcast,300,2013-02-24 14:15:00
9:35 AM,46.4,46.4,100,30.00,10.0,NW,8.1,-,N/A,,Overcast,310,2013-02-24 14:35:00
9:55 AM,48.2,46.4,93,30.00,10.0,North,6.9,-,N/A,,Overcast,350,2013-02-24 14:55:00
10:15 AM,48.2,46.4,93,30.01,10.0,NNW,5.8,-,N/A,,Overcast,340,2013-02-24 15:15:00
10:35 AM,50.0,46.4,87,30.01,10.0,West,5.8,-,N/A,,Mostly Cloudy,280,2013-02-24 15:35:00
10:55 AM,51.8,46.4,82,30.01,10.0,NW,6.9,-,N/A,,Scattered Clouds,310,2013-02-24 15:55:00
11:15 AM,53.6,46.4,77,30.01,10.0,Calm,Calm,-,N/A,,Partly Cloudy,0,2013-02-24 16:15:00
11:35 AM,55.4,46.4,72,30.00,10.0,Calm,Calm,-,N/A,,Clear,0,2013-02-24 16:35:00
11:55 AM,55.4,46.4,72,30.01,10.0,WNW,3.5,-,N/A,,Clear,290,2013-02-24 16:55:00
12:15 PM,57.2,44.6,63,29.99,10.0,NW,6.9,-,N/A,,Clear,310,2013-02-24 17:15:00
12:35 PM,59.0,44.6,59,29.99,10.0,Calm,Calm,-,N/A,,Clear,0,2013-02-24 17:35:00
12:55 PM,59.0,44.6,59,29.99,10.0,WNW,3.5,-,N/A,,Clear,290,2013-02-24 17:55:00
1:15 PM,60.8,42.8,52,29.97,10.0,WNW,8.1,-,N/A,,Clear,290,2013-02-24 18:15:00
1:35 PM,62.6,44.6,52,29.96,10.0,West,4.6,-,N/A,,Clear,270,2013-02-24 18:35:00
1:55 PM,62.6,41.0,45,29.95,10.0,NW,6.9,-,N/A,,Clear,310,2013-02-24 18:55:00
2:15 PM,62.6,41.0,45,29.95,10.0,WNW,6.9,-,N/A,,Clear,300,2013-02-24 19:15:00
2:35 PM,64.4,41.0,42,29.94,10.0,WSW,4.6,-,N/A,,Clear,240,2013-02-24 19:35:00
2:55 PM,64.4,39.2,40,29.94,10.0,NW,9.2,-,N/A,,Clear,310,2013-02-24 19:55:00
3:15 PM,64.4,37.4,37,29.94,10.0,NNW,6.9,-,N/A,,Clear,330,2013-02-24 20:15:00
3:35 PM,64.4,39.2,40,29.94,10.0,North,6.9,-,N/A,,Clear,350,2013-02-24 20:35:00
3:55 PM,66.2,39.2,37,29.93,10.0,WNW,5.8,-,N/A,,Clear,300,2013-02-24 20:55:00
4:15 PM,64.4,37.4,37,29.94,10.0,West,6.9,-,N/A,,Clear,280,2013-02-24 21:15:00
4:35 PM,66.2,37.4,35,29.94,10.0,WNW,8.1,-,N/A,,Clear,290,2013-02-24 21:35:00
4:55 PM,64.4,39.2,40,29.94,10.0,WNW,6.9,-,N/A,,Clear,290,2013-02-24 21:55:00
5:15 PM,64.4,39.2,40,29.94,10.0,West,8.1,-,N/A,,Clear,280,2013-02-24 22:15:00
5:35 PM,64.4,39.2,40,29.95,10.0,West,4.6,-,N/A,,Clear,270,2013-02-24 22:35:00
5:55 PM,62.6,39.2,42,29.96,10.0,West,3.5,-,N/A,,Clear,280,2013-02-24 22:55:00
6:15 PM,59.0,39.2,48,29.96,10.0,Calm,Calm,-,N/A,,Clear,0,2013-02-24 23:15:00
6:35 PM,55.4,41.0,58,29.98,10.0,Calm,Calm,-,N/A,,Clear,0,2013-02-24 23:35:00
6:55 PM,51.8,41.0,67,29.99,10.0,Calm,Calm,-,N/A,,Clear,0,2013-02-24 23:55:00
7:15 PM,48.2,44.6,87,29.99,10.0,Calm,Calm,-,N/A,,Clear,0,2013-02-25 00:15:00
7:35 PM,46.4,42.8,87,29.99,10.0,Calm,Calm,-,N/A,,Clear,0,2013-02-25 00:35:00
7:55 PM,46.4,42.8,87,29.99,10.0,Calm,Calm,-,N/A,,Clear,0,2013-02-25 00:55:00
8:15 PM,44.6,42.8,93,29.99,10.0,Calm,Calm,-,N/A,,Clear,0,2013-02-25 01:15:00
8:35 PM,44.6,42.8,93,30.00,10.0,Calm,Calm,-,N/A,,Clear,0,2013-02-25 01:35:00
8:55 PM,44.6,44.6,100,30.00,10.0,Calm,Calm,-,N/A,,Clear,0,2013-02-25 01:55:00
9:15 PM,42.8,42.8,100,30.01,10.0,Calm,Calm,-,N/A,,Clear,0,2013-02-25 02:15:00
9:35 PM,41.0,41.0,100,30.01,10.0,Calm,Calm,-,N/A,,Clear,0,2013-02-25 02:35:00
9:55 PM,41.0,41.0,100,30.02,10.0,Calm,Calm,-,N/A,,Clear,0,2013-02-25 02:55:00
10:15 PM,39.2,39.2,100,30.02,10.0,Calm,Calm,-,N/A,,Clear,0,2013-02-25 03:15:00
10:35 PM,39.2,39.2,100,30.01,10.0,Calm,Calm,-,N/A,,Clear,0,2013-02-25 03:35:00
10:55 PM,39.2,39.2,100,30.01,10.0,Calm,Calm,-,N/A,,Clear,0,2013-02-25 03:55:00
11:15 PM,39.2,39.2,100,30.00,10.0,Calm,Calm,-,N/A,,Clear,0,2013-02-25 04:15:00
11:35 PM,37.4,37.4,100,30.01,9.0,Calm,Calm,-,N/A,,Clear,0,2013-02-25 04:35:00
11:55 PM,37.4,37.4,100,30.01,10.0,Calm,Calm,-,N/A,,Clear,0,2013-02-25 04:55:00